COSMOS 1275 DEB, 17642

Orbit data source: Space-Track

COSMOS 1275 DEB, 17642 is space debris in LEO originally from a launch on Thu, 04 Jun 1981 UTC launched from the Plesetsk Missile And Space Complex (PKMTR). Debris objects in space refer to the collection of defunct objects orbiting the Earth. Examples of debris include non-operational satellites, rocket bodies, and fragments generated from explosions, collisions, or faulty payload assembly.

Loading next visibility...
Identifier
17642, 1981-053LM
Orbit
LEO
Country
Flag of CISCIS
Related business
Manufacturer
Unknown
Mission
Spacecraft
Bus & Motor
Unknown
Mass
Unknown
Launch date (UTC)
1981-06-04 (45 years ago)
Launch vehicle
Unknown
Launch site
Plesetsk Missile And Space Complex (PKMTR)
Object type
Payload
Rocket body
Debris
Shape & HBR
Unknown shape, 0.1 m
Radar Cross Section
Small (<0.1 m²)

Expand to show TLE details & history
Last TLE update: 23 hours ago

TLE from 23 hours ago
0 COSMOS 1275 DEB
1 17642U 81053LM  26134.45479241  .00002725  00000-0  80240-3 0  9992
2 17642  82.8587 139.5023 0028578 213.2439 146.6960 14.43169171131944
Epoch: 2026-05-14T10:54Z
TLE epoch observation values (Epoch: 2026-05-14T10:54:54.064Z)
Latitude
-0.00009°
Longitude
103.5768°
Altitude
768.081 km
Speed
7.461 km/s
True Right ascension
09h 18m 00s
True Declination
0° 00' 00"
Sunlit
Object was in daylight at epoch
Visualization orbit readout
Latitude
Unknown
Longitude
Unknown
Altitude
Unknown
Speed
Unknown
Apparent Right ascension
Unknown
Apparent Declination
Unknown
Sunlit
N/A
Visualization observer readout
Local Sidereal Time
18:31:46
Azimuth
Unknown
Elevation
Unknown
Doppler factor
Unknown
Orbital elements
Apogee altitude
765.462 km
Perigee altitude
724.748 km
Semi-major axis
7,123.242 km
Eccentricity
0.00286
Inclination
82.8587°
RAAN
139.5023°
Arg. of periapsis
213.2439°
True anomaly
146.87528°
Mean anomaly
146.696°
Eccentric anomaly
146.78569°
Mean motion
3.61016 °/min
Orbital period
99.72 mins
BSTAR
0.0008024
Loading maneuver chart data...
Computing Atmospheric mass density...
Loading historical data...
Loading historical data...
Loading historical data...
Loading historical data...
Loading historical data...
Loading historical data...
Loading historical data...

Documentation

Showing up to 5 results
|